Theta_e
297 297 297 298 298 298 299 297 297 297 297 298 297 300 303 300 293 295 304 308 306 310 314 317 317 317 318 320 320 321 321 321 320 319 319 320 321 322 325 328 330 329 330 332 333 335 336 339 339 340 340 342 342 342 343 345 347 348 350 349 348 348 347 347 346 348 350 351 350 350 352 348 348 349 351 351 352 351 352 351 352 351 353 352 349 347 349
298 298 299 300 298 298 299 299 298 298 297 301 303 305 307 306 302 306 308 308 309 313 316 318 319 321 322 321 321 320 319 318 318 318 318 319 321 323 323 324 326 329 331 332 333 334 335 336 338 340 342 342 340 340 342 344 348 349 346 345 344 342 342 343 345 347 350 352 350 350 350 349 348 349 350 350 352 351 352 351 351 352 351 353 352 349 348
295 297 301 298 297 297 296 298 301 298 298 307 309 309 310 311 309 310 310 310 309 315 319 319 321 322 322 322 320 318 318 318 318 317 318 322 324 325 324 324 324 326 330 331 332 333 334 336 337 338 340 340 340 340 341 344 347 349 349 344 344 343 342 342 344 346 348 351 350 349 348 349 349 350 351 352 351 350 349 349 351 352 356 353 352 350 349
290 296 296 297 298 298 296 298 299 298 295 301 307 307 310 309 307 309 309 308 309 316 319 320 320 320 320 319 319 317 316 318 317 316 317 319 321 322 323 324 325 326 328 330 331 332 334 337 338 338 339 341 341 342 343 344 344 344 344 344 341 341 343 343 344 345 348 349 349 348 347 348 350 349 347 345 346 349 350 350 350 352 351 351 351 353 350
290 295 296 296 296 294 291 293 298 303 303 303 306 309 313 313 314 308 305 306 315 318 320 317 316 318 318 318 317 315 315 316 316 315 316 316 318 318 321 325 327 327 329 331 333 334 336 337 339 340 341 340 340 340 340 341 341 340 339 340 340 340 341 342 342 343 345 346 347 346 347 349 350 348 345 344 343 344 345 348 347 346 347 350 348 349 352
289 294 296 296 290 285 287 296 302 308 305 306 305 305 309 313 313 308 311 313 317 319 318 316 315 316 317 317 317 318 317 315 314 315 316 318 319 319 320 324 328 329 331 332 334 336 336 338 338 339 340 339 338 339 339 338 337 337 337 337 337 338 339 341 340 341 342 344 344 344 345 346 346 346 346 344 345 346 346 346 346 347 348 345 347 347 348
290 292 293 289 284 287 298 306 306 309 309 310 309 310 313 315 317 317 316 316 317 318 318 318 318 318 318 319 319 318 319 317 316 316 317 317 320 319 319 322 325 329 332 333 334 334 335 336 336 336 336 335 334 333 334 334 335 335 336 336 336 336 337 338 340 340 340 340 339 340 341 342 343 343 344 345 345 345 345 344 345 344 344 344 347 350 351
291 287 288 283 285 296 307 305 310 314 314 314 313 310 314 317 317 318 316 317 318 318 318 318 319 319 320 321 321 320 320 320 317 316 316 318 319 319 321 322 324 326 330 332 331 332 336 334 333 333 333 333 331 330 331 331 332 333 334 334 334 336 336 336 337 338 338 338 338 339 339 341 341 342 343 343 342 341 339 337 337 339 339 341 342 345 348
288 288 286 287 296 301 301 304 303 303 304 307 307 301 305 314 317 317 315 316 317 318 318 319 319 319 319 316 315 322 322 320 319 318 317 318 319 321 322 327 327 328 331 331 332 332 333 332 330 330 331 330 329 329 329 330 330 331 332 332 332 333 334 336 337 338 338 338 338 337 339 339 340 341 340 339 338 337 332 332 331 331 331 332 336 339 339
291 287 285 285 285 285 292 301 307 309 309 312 313 310 304 313 316 319 317 316 317 317 318 318 318 318 314 310 312 318 322 323 321 320 319 320 321 323 323 324 325 327 329 331 332 331 331 331 332 332 331 331 329 328 328 329 329 330 330 330 332 332 333 334 336 337 338 338 338 338 339 339 340 339 337 335 333 333 330 329 328 328 328 328 330 333 333
291 289 284 284 284 289 296 302 309 311 315 315 313 306 300 307 314 319 319 317 317 317 317 316 317 312 308 308 312 318 321 321 320 319 319 319 321 322 323 323 323 326 328 330 333 331 328 327 328 329 328 327 327 326 327 327 328 329 329 330 331 332 333 334 334 336 336 336 336 336 337 337 339 337 335 333 333 331 329 327 327 327 327 324 324 325 327
292 288 285 284 289 295 303 308 310 309 313 310 302 292 295 308 315 318 319 317 317 317 318 318 315 310 305 306 313 320 321 321 320 319 317 316 319 321 323 322 327 328 329 330 329 329 328 329 333 329 329 327 325 323 323 324 325 327 329 331 331 332 333 333 333 334 335 335 335 335 335 336 337 337 337 334 332 330 328 326 324 323 323 321 320 321 322
294 294 287 288 293 302 309 311 311 308 311 302 291 285 296 310 316 318 319 318 318 318 318 317 313 313 311 314 319 322 321 320 318 318 317 317 318 320 324 325 332 326 328 328 328 329 329 331 332 332 331 327 326 326 323 322 323 325 327 329 330 331 332 333 333 333 334 333 333 333 334 334 336 336 336 334 332 329 327 325 324 322 321 321 320 320 320
289 288 286 287 290 300 306 307 312 312 305 293 288 296 307 315 316 318 319 318 318 319 319 318 314 314 317 320 321 320 319 317 315 315 316 317 318 320 326 328 326 323 326 326 328 329 330 331 331 330 329 327 327 324 322 322 324 326 326 327 328 329 329 328 328 328 330 331 331 331 331 331 331 331 333 333 331 329 327 325 323 321 321 322 319 320 320
292 291 289 287 285 300 312 310 305 309 297 294 301 311 315 319 318 318 318 319 319 319 317 318 318 318 320 321 320 318 317 315 314 313 312 310 310 315 320 320 325 324 323 325 327 328 329 330 328 330 331 326 325 324 322 322 323 324 327 327 327 327 327 327 327 325 324 324 325 326 325 326 325 325 327 329 329 328 326 324 323 322 322 321 319 319 319
289 289 288 286 291 298 311 307 299 305 306 310 314 315 313 316 318 318 317 318 319 320 319 319 319 319 319 318 318 316 315 314 313 312 311 311 311 312 317 319 321 325 323 324 325 327 328 329 329 327 328 326 326 323 322 324 325 323 319 319 321 322 321 319 319 322 323 323 322 321 322 322 323 322 322 324 326 327 326 325 323 322 322 322 321 320 319
298 295 296 300 302 307 311 312 309 311 314 316 316 316 315 315 315 317 318 317 318 321 320 320 319 318 319 319 318 315 312 312 312 312 312 311 312 313 314 316 321 320 320 321 323 326 327 328 328 328 329 327 327 324 325 327 326 324 321 319 317 317 316 316 317 317 318 318 319 319 318 318 319 320 321 321 321 322 324 322 322 321 320 323 321 320 320
310 309 305 308 309 311 314 315 315 315 317 317 316 317 315 315 317 318 317 318 320 321 321 320 319 319 319 317 314 313 312 312 312 313 312 313 315 316 317 317 318 317 317 319 320 322 323 326 327 329 328 328 326 325 327 329 328 327 325 321 319 316 315 314 314 316 316 317 317 318 318 317 317 316 317 320 319 318 320 321 321 320 320 319 319 320 316
299 297 306 308 309 311 312 313 315 316 317 316 316 317 317 317 318 318 319 321 321 321 321 320 319 318 319 315 313 313 313 313 313 313 313 313 314 314 314 318 320 315 316 316 316 317 317 320 323 326 326 327 327 327 327 327 327 326 326 325 322 316 313 313 313 314 314 315 316 317 316 316 316 316 314 313 316 317 316 316 318 319 320 319 317 315 315
298 299 305 309 310 311 312 313 313 311 314 315 318 319 319 319 319 320 322 323 322 322 320 320 319 319 318 315 313 314 314 313 313 313 312 312 313 315 317 318 318 316 316 315 316 317 317 317 319 322 323 323 325 325 326 327 326 325 324 323 320 319 317 317 318 318 320 324 318 315 315 314 312 313 314 314 312 312 312 311 314 314 317 316 315 314 312
303 307 309 310 311 312 311 311 311 314 317 317 318 319 319 319 319 321 323 324 322 322 321 321 320 319 318 316 314 314 313 313 312 312 314 316 318 319 319 319 319 315 317 318 318 319 318 319 319 319 321 322 324 324 325 325 325 324 324 326 322 319 319 320 320 322 319 317 316 315 313 312 311 309 310 312 313 312 311 310 310 313 315 316 317 313 312
299 300 303 307 303 302 307 309 314 316 317 319 319 319 319 320 320 321 321 321 322 323 323 322 321 319 317 315 314 313 313 313 314 316 318 319 320 320 321 321 320 321 321 319 319 319 318 320 322 322 322 323 324 325 324 322 322 323 323 321 320 321 321 322 323 322 319 316 317 317 314 313 313 313 310 304 305 313 313 311 304 299 302 309 306 309 312
297 304 307 308 307 307 307 309 316 317 318 319 319 319 319 320 322 322 321 320 320 321 322 323 321 319 316 314 314 313 314 316 318 319 319 319 320 321 322 321 321 321 320 322 321 320 319 321 322 323 323 323 324 324 324 322 320 319 319 320 319 320 324 324 324 324 322 318 316 314 314 315 315 316 313 310 297 300 307 308 302 295 293 294 296 302 310
307 308 312 312 308 309 311 315 316 317 317 319 318 320 321 321 322 322 322 322 321 320 321 322 322 319 315 314 315 315 317 318 318 319 320 320 321 321 322 321 321 322 322 322 321 321 319 321 320 320 321 321 322 324 324 323 321 319 318 318 317 318 322 324 327 324 320 323 322 321 315 314 314 314 311 310 312 301 297 302 301 297 295 294 292 293 295
307 312 313 313 311 313 316 316 317 317 318 319 318 318 320 320 321 322 322 322 323 322 321 320 320 318 316 316 317 318 318 318 320 321 322 323 323 322 321 321 321 322 322 322 321 320 320 319 319 320 319 320 322 324 324 324 323 322 320 319 318 318 321 322 322 327 322 321 322 320 320 321 319 316 314 313 309 310 310 299 298 297 294 294 293 294 294
313 315 316 316 316 316 316 316 316 316 317 319 318 317 321 325 323 322 322 322 322 322 322 321 318 317 318 318 318 319 319 319 322 324 321 321 321 321 321 321 322 321 320 320 320 320 319 319 318 319 319 321 321 322 323 323 323 321 319 321 320 319 319 320 318 317 316 316 318 317 316 315 317 315 321 321 314 312 311 312 312 307 303 298 295 294 298
318 316 315 313 313 313 314 313 311 316 317 318 318 318 321 324 330 323 322 323 323 323 322 320 318 317 318 319 320 320 319 320 323 321 320 321 321 320 321 322 323 322 321 318 315 319 323 321 318 316 317 319 319 320 320 321 321 318 316 320 322 330 329 329 316 317 317 317 316 316 318 318 316 318 319 322 325 323 315 313 313 310 311 314 306 297 305
317 315 315 310 310 312 312 314 316 315 317 318 318 321 322 321 320 319 319 320 321 321 321 320 318 317 318 319 319 320 322 321 319 319 319 320 321 322 322 322 322 321 319 319 320 320 318 316 315 315 315 316 317 316 317 317 317 316 317 316 319 324 324 327 322 318 317 314 315 314 315 315 318 321 323 324 323 324 321 322 320 314 315 311 312 313 301
315 314 314 315 316 315 316 316 315 315 316 318 320 320 320 319 319 319 319 320 320 319 319 319 319 319 319 319 320 320 320 319 318 318 319 319 321 322 322 322 319 319 318 320 318 316 315 315 314 314 313 314 314 314 314 314 313 313 314 316 319 320 322 319 317 316 317 316 314 318 325 322 319 317 320 322 326 320 321 321 322 319 313 312 311 313 314
316 316 317 316 316 317 316 314 314 315 316 317 317 317 319 318 317 318 319 319 320 319 319 319 318 319 320 319 320 320 319 318 319 319 319 319 321 322 322 319 317 316 317 317 316 315 314 314 314 313 313 314 314 313 313 312 312 313 314 316 319 320 319 319 319 318 315 314 319 327 320 320 317 317 319 319 319 319 320 322 323 320 314 313 318 311 311
316 316 317 317 317 315 315 313 314 315 315 315 316 316 316 317 317 317 317 319 319 319 319 319 319 319 319 319 319 320 320 319 319 319 319 319 321 321 320 317 316 314 315 316 317 316 315 315 314 313 313 313 313 312 312 311 311 312 314 316 317 323 324 325 325 317 315 320 320 318 316 317 316 319 322 319 316 316 313 314 316 318 317 314 314 314 313
315 315 316 315 315 313 313 313 313 314 314 314 315 315 314 314 314 315 317 318 318 319 319 319 319 318 319 319 319 319 318 318 319 319 319 320 321 320 319 317 317 321 315 316 316 317 316 315 314 314 313 313 313 312 312 311 312 313 314 322 316 317 321 322 320 320 320 323 321 318 320 317 316 319 320 319 315 315 314 314 315 316 315 315 315 315 315
313 312 311 311 312 311 312 312 312 312 313 313 314 316 316 316 316 316 318 319 319 319 319 319 320 319 319 319 318 318 318 319 319 319 319 319 319 319 318 317 317 317 317 317 318 317 317 315 314 313 311 312 312 311 312 313 314 313 313 314 314 316 323 319 319 317 320 320 318 319 318 319 318 317 317 319 318 319 315 315 316 317 318 315 313 311 307
313 313 314 315 314 313 312 313 313 313 313 315 314 315 315 316 317 317 318 319 320 319 319 319 320 320 320 320 318 318 319 319 318 318 319 319 319 318 318 321 318 318 317 318 317 316 315 315 313 311 311 310 310 312 313 314 313 313 312 312 313 312 314 315 317 318 316 317 318 316 317 320 316 316 319 319 317 316 318 318 318 317 314 314 309 310 304
315 314 316 317 317 316 316 316 314 313 314 313 313 314 315 315 317 318 320 320 319 320 320 321 321 321 321 320 319 319 319 319 318 319 318 319 318 318 318 317 317 317 317 316 316 316 315 314 312 311 310 310 311 313 314 312 312 311 312 312 317 314 312 315 314 314 315 315 315 313 313 313 314 324 320 315 314 314 314 317 316 315 314 312 312 314 310
317 317 316 315 316 315 315 316 316 316 316 314 315 315 315 316 316 318 320 320 321 321 321 322 322 322 321 320 319 319 319 319 319 319 319 318 317 317 317 316 316 316 315 314 315 316 315 313 322 322 313 313 313 313 313 312 311 310 313 312 315 314 315 316 314 314 314 313 314 314 314 319 318 317 316 313 313 313 313 312 313 314 312 312 313 311 309
320 319 319 318 317 316 315 315 316 316 317 317 317 316 317 317 318 317 318 319 321 322 322 322 321 320 320 320 320 320 320 320 320 319 318 317 318 317 316 315 316 316 316 314 315 314 315 316 324 323 319 316 313 312 317 323 310 308 310 308 309 311 313 311 312 311 311 314 313 312 314 312 310 310 314 311 312 313 312 311 313 311 312 313 313 312 311
321 321 320 320 319 317 316 316 317 318 318 317 317 318 318 317 317 318 318 319 320 322 322 322 321 321 320 320 320 319 319 320 320 318 317 317 317 316 315 315 314 315 315 315 316 314 313 320 324 320 313 313 312 313 318 321 319 308 306 309 310 312 312 312 311 313 313 309 313 309 308 308 308 308 309 309 311 313 313 312 312 311 310 312 312 312 313
319 320 320 319 319 318 317 318 318 318 318 317 316 317 317 318 318 318 318 318 320 322 322 321 320 320 319 319 319 319 320 320 320 318 317 317 317 316 315 315 315 316 316 317 315 313 317 322 317 311 312 312 312 308 316 323 324 305 307 308 308 310 310 312 311 311 311 312 309 308 308 308 309 309 308 309 309 311 314 315 313 311 311 310 309 309 309
318 319 319 319 318 317 317 319 318 318 317 318 316 316 316 317 316 316 317 318 319 321 321 320 320 319 319 319 318 318 319 319 319 318 317 316 316 315 314 313 314 314 317 323 315 313 321 325 316 311 311 309 310 311 317 318 317 310 305 306 308 309 310 311 308 307 308 308 311 313 309 309 309 309 309 309 309 309 308 309 309 309 309 309 308 308 309
318 319 319 319 318 318 317 318 318 317 317 317 317 317 317 317 316 316 316 317 319 321 321 321 320 320 319 319 319 319 319 319 319 318 317 316 314 314 314 314 313 315 320 316 314 316 320 320 312 310 311 310 310 318 312 318 307 304 306 308 309 308 308 309 308 308 308 309 309 306 307 308 308 308 308 307 307 307 307 307 307 307 307 307 306 306 306
318 319 319 318 318 318 318 318 318 317 317 317 317 317 317 317 317 316 317 318 319 320 320 321 324 320 320 320 319 319 318 319 319 318 317 317 315 314 313 313 314 315 320 320 321 320 317 314 315 315 309 309 312 320 319 310 303 304 305 307 309 310 309 310 309 307 308 306 305 305 307 306 306 305 306 306 305 306 306 306 305 305 304 304 303 302 303
318 318 318 319 319 318 318 318 317 318 317 317 317 317 317 318 318 317 318 319 319 318 319 319 322 322 320 318 317 316 317 318 318 317 317 317 318 317 316 315 314 315 323 317 315 312 309 308 310 308 314 312 312 319 317 304 304 304 306 308 313 311 309 307 306 306 305 304 304 304 304 305 304 304 304 304 304 304 305 304 304 303 303 302 302 302 302
319 319 319 320 319 318 319 319 317 317 317 317 317 318 319 318 318 319 319 318 318 318 318 318 319 317 317 317 316 316 316 317 316 316 315 312 312 313 314 316 314 319 325 315 311 308 308 309 308 312 319 319 319 318 308 304 305 305 307 307 307 307 308 306 305 305 304 305 304 303 305 306 304 304 303 303 303 303 304 303 302 302 302 301 302 302 301
319 318 319 321 320 319 319 319 318 317 317 318 318 318 320 319 319 320 319 319 318 318 318 318 317 316 316 317 317 317 317 317 317 315 313 311 311 310 313 320 318 319 318 317 310 309 309 309 313 320 321 320 320 319 304 305 304 306 306 306 305 306 306 305 305 306 305 305 304 304 305 303 303 304 303 304 305 303 303 303 302 302 302 301 300 300 300
319 319 319 323 320 318 318 319 319 317 318 318 317 318 319 320 320 320 320 319 319 318 318 319 318 317 317 317 317 317 317 317 317 317 317 315 314 313 315 319 315 317 319 318 309 310 309 317 321 321 320 320 319 310 303 306 305 303 305 305 306 306 305 305 306 305 305 304 304 303 303 302 302 302 303 303 303 303 303 305 304 302 300 300 300 299 298
318 319 320 320 320 319 318 317 317 317 317 317 316 315 316 317 319 320 319 320 320 319 318 320 318 317 319 318 317 316 314 312 311 311 313 314 317 317 317 318 317 318 317 311 311 310 312 317 320 320 320 318 318 303 302 302 303 303 304 304 306 304 305 304 303 304 304 303 304 306 308 305 302 302 305 306 304 304 303 303 301 300 300 302 302 303 302
317 318 320 319 320 319 317 317 317 316 316 317 317 317 317 318 319 320 320 319 319 318 317 317 318 319 319 319 319 319 317 315 311 308 311 314 314 314 314 312 313 320 317 318 315 318 320 320 320 319 318 317 309 301 303 303 304 303 303 303 303 303 302 302 302 301 302 304 303 301 301 302 301 302 302 302 302 302 301 301 301 301 301 301 300 300 300
317 318 319 318 318 318 317 316 316 316 315 316 317 316 317 318 318 318 318 318 318 318 318 319 318 318 318 318 319 317 317 318 316 311 311 313 313 311 311 316 319 319 314 311 311 311 318 318 318 317 316 316 302 302 301 302 306 307 306 304 304 303 302 301 300 300 299 300 300 301 301 301 300 300 301 301 302 301 303 301 301 302 300 300 300 302 302
316 317 318 317 317 317 316 316 316 316 317 317 316 316 318 319 316 316 317 317 317 318 318 318 318 318 317 316 316 315 315 314 314 313 312 312 311 310 311 313 313 316 314 310 310 310 317 317 315 314 311 304 302 302 303 304 304 305 304 307 305 303 304 304 308 307 303 302 300 301 300 301 299 301 302 300 300 301 302 301 299 304 308 306 301 300 301
315 315 315 315 316 316 316 315 314 314 315 315 314 317 318 318 317 317 317 318 317 317 316 317 317 317 316 315 314 314 313 313 313 315 311 310 310 313 315 313 313 314 313 311 309 308 308 307 306 309 308 305 301 303 303 305 304 305 310 305 305 305 304 304 303 303 301 302 300 300 300 300 302 301 300 301 301 301 302 302 301 301 300 301 301 300 300
314 314 316 316 315 314 315 315 315 316 317 318 318 318 317 317 316 316 316 320 318 317 317 316 314 314 315 314 313 312 312 312 312 311 313 310 310 310 313 315 310 312 311 308 307 307 306 307 312 313 310 303 301 302 312 311 306 303 305 307 308 304 305 304 304 303 303 305 301 300 304 300 299 300 299 299 301 301 301 301 300 300 300 299 299 299 298
Wind_Speed
6 5 5 4 3 3 1 4 1 5 3 4 4 4 8 4 3 8 7 8 9 7 7 6 6 5 5 6 4 4 4 3 2 1 2 3 3 3 3 4 4 3 4 4 4 4 3 0 1 3 1 1 2 3 3 1 2 0 1 3 2 4 3 1 3 2 4 3 2 1 1 2 2 2 2 2 2 2 2 2 2 2 2 1 2 4 5
1 3 3 3 5 8 6 4 1 1 6 7 9 4 4 8 6 9 12 7 5 6 7 7 5 4 6 5 2 1 2 3 3 2 2 3 3 3 3 4 3 3 3 3 3 3 4 4 4 3 2 1 2 1 1 2 2 2 2 2 4 5 7 5 1 3 3 1 2 2 2 1 1 0 0 0 1 1 1 3 3 2 1 1 1 3 3
1 2 4 5 5 8 8 5 3 0 5 10 10 10 10 14 9 8 10 9 5 1 5 5 3 5 4 4 3 1 1 1 3 2 2 3 4 4 3 3 4 3 2 3 3 4 3 3 3 3 3 1 1 1 0 1 1 2 4 5 3 2 3 5 4 2 3 1 3 3 3 3 2 3 2 1 0 1 1 1 1 1 1 2 2 1 2
3 3 4 5 8 7 4 2 4 5 5 9 7 9 5 9 8 9 9 8 4 3 3 6 5 5 6 6 5 3 1 0 3 3 1 3 2 3 2 3 3 3 3 4 4 3 3 3 3 4 4 4 3 3 3 5 4 4 4 5 5 5 5 6 2 2 1 3 4 4 4 4 3 3 2 2 2 1 0 0 0 0 1 2 2 1 3
2 3 3 5 6 6 6 4 2 11 6 10 4 4 3 9 18 12 9 8 8 10 8 9 5 6 5 5 4 3 2 2 3 3 1 1 2 2 3 3 3 3 3 3 4 4 3 4 5 6 6 6 6 6 7 5 5 6 6 5 5 5 3 5 0 3 3 2 3 2 2 3 3 1 1 2 2 2 1 0 0 0 1 2 2 1 1
2 4 2 3 6 3 2 3 3 11 11 14 11 7 10 10 7 6 6 8 9 10 8 10 9 8 7 5 4 3 5 4 3 2 1 0 1 3 3 3 3 3 3 5 5 5 6 5 6 7 8 8 7 7 7 7 7 6 6 5 5 4 4 3 5 2 1 3 4 4 4 5 5 4 2 1 1 1 1 1 1 1 1 2 2 3 2
0 2 5 6 1 2 4 6 6 6 13 13 11 7 8 6 7 13 12 12 13 12 10 9 8 5 3 3 5 3 3 4 4 4 3 1 0 2 3 4 5 4 3 5 6 7 7 6 7 8 8 7 7 8 7 7 6 6 5 5 4 3 4 4 4 5 4 4 5 4 4 6 6 6 5 4 3 3 3 2 2 1 1 1 0 1 1
1 4 2 2 2 4 2 5 9 12 15 16 18 10 3 5 10 13 12 10 10 10 8 6 6 7 5 5 2 3 3 4 5 4 3 2 1 1 1 2 4 4 4 5 6 6 5 6 7 8 7 6 7 7 7 7 6 6 6 6 5 5 6 5 5 5 5 6 6 5 3 6 7 6 5 4 4 4 5 5 5 5 5 5 5 4 2
2 2 1 3 3 2 4 1 5 4 8 7 12 6 2 3 6 10 10 8 8 10 9 9 8 6 6 4 1 0 3 3 3 4 3 2 1 1 2 2 3 3 2 4 6 5 4 6 7 7 6 7 7 7 8 6 6 6 6 7 6 6 7 6 5 5 6 6 7 4 4 6 7 6 6 6 5 4 6 7 7 8 7 6 5 7 9
4 4 1 4 5 0 4 6 7 3 7 8 11 11 2 4 2 8 13 12 11 11 9 10 9 8 7 4 4 4 2 3 4 2 3 3 3 2 3 3 4 5 4 4 4 5 5 5 4 3 5 6 6 6 6 5 6 7 7 7 6 6 6 6 6 6 7 8 8 6 6 6 6 7 7 6 6 5 6 7 8 7 6 8 8 7 8
3 4 3 2 2 1 6 3 3 1 11 13 8 8 2 4 4 6 13 12 12 14 13 11 9 8 7 7 6 6 4 3 4 4 3 3 3 2 2 3 4 4 4 3 3 4 6 6 3 3 5 6 6 5 3 3 4 6 6 5 5 5 5 5 5 5 6 7 8 8 7 7 7 7 6 6 5 5 6 6 7 6 6 7 7 8 7
2 5 3 2 3 1 3 5 1 2 7 7 8 4 5 7 6 7 11 13 12 10 12 12 10 10 8 7 8 6 7 6 5 5 4 3 3 1 1 2 2 3 4 4 4 6 8 7 7 4 4 3 4 4 3 2 4 5 4 4 3 2 3 4 4 4 5 6 6 7 8 8 7 6 5 6 6 6 6 5 6 6 6 7 8 7 6
1 5 1 1 2 3 2 2 1 3 2 8 4 3 8 7 9 9 11 13 12 12 11 10 9 8 5 6 8 7 7 5 3 3 3 4 5 4 1 2 5 4 3 3 4 5 6 6 5 5 4 3 3 3 3 4 5 4 4 5 5 3 3 4 4 4 5 6 8 8 7 7 7 7 6 6 6 6 6 5 6 7 7 7 7 6 6
2 3 4 4 2 3 1 1 0 1 3 2 2 4 3 12 9 8 10 12 10 11 12 10 6 5 3 6 8 9 9 8 6 5 4 3 2 1 4 6 5 5 5 5 4 5 5 7 5 4 2 2 2 4 4 4 4 4 6 6 6 6 6 6 5 6 6 6 7 7 7 7 7 7 5 5 5 5 5 5 7 7 6 6 6 6 6
2 2 2 1 1 2 3 1 2 3 2 5 4 4 3 9 10 10 7 10 10 10 7 5 5 5 7 10 9 9 9 8 7 6 5 5 5 6 7 5 6 7 4 4 5 5 5 7 5 3 4 2 3 4 6 4 3 3 5 5 5 5 4 5 5 6 7 8 7 6 6 6 7 7 5 5 4 5 5 6 6 6 6 5 6 6 5
3 2 1 2 3 1 1 2 2 2 3 6 8 9 6 4 8 8 7 4 8 9 10 9 7 8 10 6 8 8 9 8 6 4 4 3 4 4 5 6 6 7 6 4 4 4 5 4 5 3 2 1 2 4 4 3 4 5 7 8 8 6 5 5 6 7 7 7 7 6 5 6 6 6 5 4 4 4 4 5 5 6 5 5 5 5 5
2 2 4 5 5 4 3 4 2 3 4 7 8 8 10 9 5 5 8 7 6 10 12 10 11 9 9 9 8 10 8 7 6 6 5 5 7 7 7 6 5 5 7 7 5 3 2 3 4 3 2 1 1 4 2 3 4 5 6 6 6 6 6 5 7 6 7 7 7 7 6 6 6 6 5 5 6 5 5 5 5 5 5 5 5 5 5
2 1 3 2 0 1 2 3 4 8 5 4 6 9 7 4 6 8 9 7 8 9 11 11 7 10 9 9 7 8 7 7 5 5 4 4 5 6 6 5 5 5 4 5 5 4 3 3 4 4 3 3 3 2 3 4 4 4 5 6 6 6 6 6 7 7 7 7 7 7 7 6 6 5 4 5 6 5 6 6 5 5 5 5 4 4 4
1 0 1 3 6 3 5 6 4 5 6 6 5 8 8 7 7 5 6 10 10 11 10 12 11 9 8 9 8 8 7 8 7 6 6 6 7 8 7 6 6 5 5 5 4 4 4 2 3 3 4 3 3 3 5 5 6 7 7 7 6 6 6 7 6 7 7 6 6 6 6 6 6 6 5 5 5 5 5 5 4 4 4 3 3 3 4
2 3 6 2 1 4 5 8 6 4 5 6 8 8 8 9 7 9 8 9 9 9 9 10 12 10 8 10 9 8 8 8 7 7 7 6 5 5 6 6 7 6 6 6 5 6 5 3 3 2 3 3 4 5 5 5 6 7 8 7 6 4 5 4 5 6 6 8 7 5 5 5 6 6 6 5 5 5 4 4 4 4 3 3 3 3 3
2 2 1 3 2 1 2 4 4 6 8 8 6 8 9 9 9 8 8 10 11 10 10 10 11 11 7 8 9 9 7 7 7 7 6 5 7 6 7 6 7 7 6 6 5 5 4 3 3 3 3 3 4 6 6 5 7 8 7 7 7 6 4 4 4 4 5 5 5 5 5 5 4 3 4 4 3 3 3 2 1 1 2 2 3 3 2
0 3 3 5 6 3 5 3 7 7 8 12 10 8 9 9 10 10 10 6 6 9 11 11 11 10 8 9 10 9 8 8 7 6 6 6 7 6 6 6 6 5 5 6 6 5 4 4 3 3 3 4 4 5 5 5 6 7 6 7 7 6 6 5 4 4 3 4 3 4 4 4 3 3 5 2 2 1 2 4 5 4 2 2 2 2 2
4 6 7 6 5 6 7 5 6 8 9 12 12 12 11 10 11 11 11 9 7 8 8 9 10 9 10 11 10 9 6 7 8 9 9 8 7 7 6 7 6 6 5 4 5 4 4 3 3 3 4 4 4 4 4 4 6 6 5 6 5 6 6 6 6 5 4 3 2 2 2 3 3 3 2 0 2 3 2 1 1 2 1 1 3 5 2
2 3 6 9 6 8 4 4 7 8 9 13 13 11 11 12 11 10 11 12 12 9 9 7 7 10 10 10 11 10 8 8 9 8 7 8 8 7 6 8 7 6 5 5 4 5 4 4 4 4 4 3 4 3 4 4 4 5 5 6 5 5 5 4 6 5 5 4 3 3 2 2 2 3 2 2 0 2 3 1 3 3 2 2 3 3 3
3 3 5 5 6 6 5 8 7 7 6 11 12 12 11 11 10 11 12 9 10 14 11 8 6 9 12 10 10 11 10 8 9 9 8 7 7 7 6 6 7 7 6 5 4 3 3 4 4 3 4 2 2 3 3 3 4 5 4 4 5 4 4 4 5 4 4 3 3 5 3 3 3 2 3 3 3 2 1 4 5 5 5 2 2 3 4
5 4 4 4 6 5 4 5 3 5 4 7 8 8 10 12 12 11 11 11 8 10 12 10 10 9 11 10 9 9 10 9 8 9 7 6 5 5 6 6 6 4 4 4 4 4 4 4 4 4 4 1 1 2 3 3 4 4 4 3 3 4 4 4 4 4 3 2 1 1 2 3 2 3 3 4 5 4 4 2 1 2 3 4 2 3 1
3 8 9 8 6 3 5 10 6 6 5 7 10 8 9 12 15 11 9 10 10 10 11 11 11 9 8 9 10 10 11 7 7 7 7 7 7 6 6 4 5 4 5 5 5 5 6 5 5 4 3 1 2 3 4 4 5 4 5 4 1 2 8 5 3 2 1 1 1 2 2 1 0 1 1 1 1 4 4 5 5 3 2 0 1 3 1
9 9 10 8 8 8 6 5 8 6 6 9 9 9 8 10 10 10 9 7 6 5 7 10 11 9 9 8 10 8 8 9 9 7 7 8 7 6 5 6 5 5 5 5 5 5 5 5 5 5 4 3 4 4 6 6 6 6 6 5 2 1 3 4 2 0 1 1 1 2 3 3 2 2 1 0 1 3 3 4 4 4 2 4 2 2 2
8 8 5 8 11 9 5 2 3 6 5 6 8 9 11 12 11 12 11 11 9 8 7 7 10 10 11 9 10 10 8 8 8 8 8 6 6 7 7 7 6 6 6 5 5 5 5 5 5 6 4 2 4 4 5 6 6 6 5 5 4 2 4 2 2 1 0 0 2 2 3 2 2 3 1 1 2 2 1 1 3 4 5 2 0 2 1
6 4 5 6 6 8 8 6 6 6 8 8 10 10 12 14 11 10 10 10 10 11 9 9 9 8 10 9 9 10 10 9 9 7 7 6 7 7 7 7 6 4 4 4 5 4 5 5 6 5 3 2 3 4 5 5 5 5 5 4 3 3 4 2 1 1 1 2 2 2 2 3 3 2 2 1 2 2 3 3 3 5 5 3 2 1 1
4 4 7 7 8 8 11 9 6 8 9 8 10 10 10 13 13 11 11 10 9 10 8 10 10 9 10 10 9 9 8 8 8 7 6 6 7 7 8 8 8 7 6 6 5 4 5 5 5 4 3 2 4 4 4 4 4 5 4 4 4 5 5 3 2 1 1 1 2 2 3 3 3 3 3 3 3 4 3 3 3 3 4 4 3 3 4
7 6 7 7 9 9 8 6 6 8 9 7 10 11 11 12 12 12 10 10 10 11 9 10 10 11 10 8 8 8 8 7 7 6 6 8 8 7 8 8 8 7 6 5 5 6 6 6 5 4 3 4 4 4 4 4 5 5 3 3 3 3 3 5 3 3 2 2 2 2 2 1 2 2 3 3 3 3 3 3 2 2 3 5 4 3 3
9 5 4 5 4 5 7 6 8 8 8 9 10 11 9 10 10 11 12 10 8 8 10 10 10 10 9 8 9 9 9 8 7 7 7 8 7 7 7 7 7 6 6 5 6 7 8 8 6 4 3 4 4 3 4 5 4 4 3 2 2 1 2 2 2 3 2 2 3 3 1 1 3 3 3 2 1 2 3 3 3 3 3 3 4 2 1
13 12 13 13 14 12 11 10 7 8 7 6 7 8 8 8 9 9 10 10 10 10 10 9 9 10 9 10 9 9 8 9 7 8 9 9 7 6 6 6 6 5 5 4 5 6 6 6 6 4 4 4 4 4 4 4 3 3 2 2 1 1 2 3 3 2 3 2 2 2 1 2 1 1 1 1 1 1 1 1 2 3 3 2 1 1 0
10 8 10 12 10 12 13 12 10 8 9 8 6 7 7 7 8 10 11 12 13 12 10 9 9 10 10 10 10 9 10 11 10 10 9 9 7 7 6 5 5 6 5 4 6 6 6 6 5 5 4 4 4 4 4 3 3 3 1 1 0 0 1 2 3 3 3 4 4 3 0 1 0 1 0 1 1 1 1 2 1 1 3 3 1 0 2
6 5 5 5 6 6 7 9 10 10 8 8 7 7 6 6 6 7 12 13 12 11 10 10 10 11 11 11 11 11 10 9 10 9 9 8 8 7 7 8 8 7 6 4 3 5 5 5 8 8 5 4 4 4 3 3 2 1 0 0 0 0 1 1 3 3 4 4 2 1 2 4 5 5 6 6 6 6 5 4 3 2 3 3 2 1 0
5 6 5 6 6 7 8 8 8 8 7 8 9 8 8 8 10 8 7 6 8 12 12 11 11 12 11 12 11 10 9 9 9 9 8 7 7 8 8 8 8 8 8 8 5 3 5 5 10 12 7 5 4 4 4 6 2 1 0 1 0 1 1 3 3 3 4 1 1 4 6 7 6 6 6 7 7 6 5 5 4 2 1 1 2 2 1
5 6 6 6 6 7 8 9 7 8 7 7 5 6 10 9 10 11 9 9 7 8 11 13 13 12 11 9 9 10 9 8 9 8 8 9 8 9 8 9 8 7 8 8 6 5 5 8 13 7 5 6 4 4 5 6 4 1 0 0 1 1 1 1 3 2 0 1 3 6 6 6 7 6 6 6 6 6 6 5 5 4 3 3 2 2 2
4 3 4 4 4 5 4 3 5 7 10 11 8 8 8 11 10 10 10 9 8 7 9 10 9 11 11 11 9 9 9 9 9 9 9 9 8 10 9 9 9 10 9 6 7 7 7 6 5 6 5 5 5 4 5 7 5 1 0 1 3 3 3 2 1 3 4 4 5 6 6 6 6 7 6 6 6 6 6 6 5 4 5 5 5 4 4
5 5 6 5 5 4 5 6 7 9 8 9 11 10 8 9 9 10 10 9 7 9 10 10 11 11 11 11 11 10 9 9 9 10 9 8 7 7 5 4 4 4 6 12 9 7 8 10 7 6 4 4 4 3 3 3 3 2 2 3 3 3 1 2 4 6 6 6 6 5 5 6 6 6 6 6 6 6 6 6 6 5 4 5 5 4 3
6 6 5 6 5 5 6 7 8 9 8 8 8 10 10 11 10 10 10 10 9 9 10 12 12 12 12 12 12 11 10 9 9 10 9 8 7 7 8 8 4 4 8 8 7 7 7 7 5 5 3 4 4 4 3 3 3 3 2 2 2 2 0 2 4 6 6 6 6 6 7 6 6 6 5 6 6 6 6 6 6 6 5 5 5 5 5
6 6 5 5 5 6 6 7 7 6 6 7 8 10 11 11 13 13 11 9 9 10 11 12 14 14 13 12 11 10 10 10 10 9 10 11 10 8 8 7 5 6 10 11 9 8 6 5 4 5 5 5 4 6 5 3 5 2 2 2 3 1 2 6 5 6 5 6 6 6 6 6 6 6 5 5 6 6 6 6 6 6 5 5 5 5 5
5 6 5 5 5 5 6 6 7 9 9 7 7 9 10 10 11 10 10 10 11 10 11 11 13 13 12 11 10 11 10 10 10 10 9 7 9 11 12 8 6 7 14 9 7 6 7 6 6 5 7 6 5 8 6 3 4 4 2 1 1 1 1 5 6 6 6 7 6 6 6 6 6 6 6 6 6 5 6 6 6 5 5 5 5 5 5
6 5 5 5 5 5 6 6 6 5 7 8 7 7 8 7 8 11 11 12 12 12 12 12 12 12 12 12 11 10 9 9 9 9 8 5 3 2 2 8 7 10 15 8 7 7 6 6 6 9 12 11 11 8 4 3 3 3 2 1 2 1 3 4 6 6 6 6 6 6 6 6 6 6 6 6 6 6 5 5 5 5 5 4 4 5 5
6 6 7 7 6 6 6 6 7 9 8 5 5 6 7 8 8 10 12 13 14 14 13 13 13 13 11 11 12 11 11 10 10 10 10 8 7 4 3 7 9 8 10 10 7 7 6 7 9 13 11 12 11 8 4 4 3 3 2 1 2 3 5 4 5 6 6 6 6 6 5 6 7 6 6 6 5 5 5 5 5 5 5 4 3 3 3
7 7 7 7 7 8 8 9 7 4 5 5 5 5 6 8 10 10 11 13 14 15 14 14 15 14 13 11 10 9 9 9 9 11 12 13 12 8 8 9 8 8 12 12 6 7 7 10 13 13 12 12 9 6 4 3 3 2 1 2 4 4 5 6 5 5 6 6 7 7 6 6 7 6 6 7 6 6 5 5 4 4 5 5 5 4 3
4 4 5 6 7 7 7 6 5 6 5 6 7 7 5 6 8 9 9 12 14 14 14 14 15 13 13 14 13 11 9 7 4 2 3 4 6 10 11 12 11 12 11 8 7 7 7 9 11 13 12 11 8 5 3 3 3 2 1 4 6 5 6 6 5 5 5 4 3 4 6 6 6 7 6 6 7 6 5 5 5 4 4 4 3 3 3
1 4 4 5 6 5 5 6 7 7 8 10 9 8 7 7 7 7 6 6 9 7 4 2 3 6 9 12 13 14 14 13 10 2 1 6 7 9 9 8 8 11 11 9 9 8 13 13 13 13 11 8 4 4 3 3 3 2 2 2 3 6 5 5 6 5 4 3 3 2 4 6 6 6 6 7 6 6 6 5 5 4 4 5 6 6 5
2 1 4 3 4 6 7 7 7 8 9 8 6 6 6 7 5 5 7 8 9 8 6 8 5 3 3 5 9 9 10 12 14 9 6 8 9 9 8 9 13 14 9 7 7 6 10 12 11 10 9 7 4 4 2 3 3 2 1 2 5 5 5 6 6 5 6 4 3 4 5 5 5 6 6 6 6 6 5 4 4 4 4 4 5 4 4
1 2 4 6 5 4 4 7 8 8 7 6 6 6 7 8 8 8 9 10 9 10 11 11 10 8 7 5 4 6 7 5 6 10 10 9 9 9 9 8 8 10 11 8 7 7 8 12 10 9 5 4 4 3 3 3 4 2 1 3 4 5 6 5 5 5 4 4 4 3 4 5 6 5 4 5 5 6 6 5 3 5 7 4 4 5 5
1 2 2 4 6 6 5 5 5 5 7 7 7 4 4 2 5 4 6 8 11 11 9 8 8 8 8 7 6 6 7 8 10 11 10 8 8 9 9 8 9 8 8 8 7 7 6 5 5 4 4 4 4 3 3 3 1 1 2 2 4 5 5 4 4 5 4 4 3 3 4 4 5 5 5 5 5 6 4 4 5 5 5 6 6 6 6
3 3 5 6 7 6 6 7 7 7 7 9 9 9 8 7 8 8 7 4 1 6 9 10 8 7 8 9 8 7 7 10 9 9 9 10 9 8 9 10 8 8 8 7 6 6 5 5 4 5 5 4 4 3 4 3 1 1 1 4 5 6 4 4 5 5 4 5 4 3 3 4 4 4 4 4 4 5 5 5 5 6 6 6 6 6 6
Wind_Direction
205 209 230 256 283 242 217 288 171 64 79 88 109 143 157 135 127 178 184 161 146 180 181 185 190 167 150 151 164 179 164 142 111 62 58 52 44 25 46 46 47 44 32 19 22 14 5 43 249 280 286 115 211 203 177 220 229 353 288 169 133 108 120 192 315 3 36 30 69 116 137 166 177 178 183 201 217 222 210 228 246 273 314 286 188 198 203
315 307 299 322 350 315 292 288 184 127 89 110 114 100 141 125 138 144 150 152 143 167 177 180 186 155 135 146 155 126 109 126 127 90 33 46 38 34 22 15 14 24 37 30 18 22 15 5 1 21 33 134 206 284 280 260 262 168 160 355 80 88 113 125 119 3 26 55 74 78 86 113 137 107 110 198 271 246 243 244 246 227 258 328 242 205 204
304 292 330 8 9 345 315 261 239 103 102 93 96 102 93 85 69 108 121 120 124 245 158 143 130 125 119 114 120 184 230 117 101 65 32 37 45 36 15 8 1 351 19 38 26 17 13 15 26 40 67 62 40 41 14 349 19 333 97 124 93 118 71 48 20 130 189 151 85 71 59 51 55 59 59 58 196 215 202 212 226 238 205 215 208 206 232
317 329 20 354 1 350 353 327 73 79 119 101 128 119 170 121 143 128 112 120 156 199 145 114 129 133 134 141 152 178 236 192 98 91 51 44 32 27 8 341 344 351 12 30 24 12 0 17 42 56 61 78 86 69 44 52 37 38 52 71 87 86 89 100 105 296 335 112 116 108 93 78 52 43 55 64 55 71 157 261 334 267 263 261 269 213 203
269 266 16 20 6 16 14 313 192 101 77 119 107 102 113 144 142 133 152 200 177 160 149 136 155 145 147 146 164 172 213 199 130 124 110 352 14 357 348 354 16 16 12 20 16 20 32 36 53 57 64 67 63 58 59 44 51 52 52 56 69 64 68 111 36 338 351 52 102 109 109 106 100 73 25 55 69 69 70 62 85 7 292 1 7 321 350
240 305 350 48 47 12 252 228 226 121 127 120 119 128 130 151 144 182 178 152 145 148 151 155 164 161 172 170 201 179 159 146 129 118 147 173 315 347 356 7 18 15 23 25 16 26 40 49 65 65 61 69 67 64 63 56 54 51 56 57 62 69 83 101 143 188 187 109 83 65 56 59 55 37 18 22 36 57 62 89 102 59 33 29 333 315 276
271 325 16 43 12 248 254 336 345 117 117 105 102 99 118 130 111 107 111 135 153 164 160 157 153 146 149 140 144 158 155 134 141 145 156 169 352 8 11 16 8 0 25 35 27 33 28 41 52 64 64 64 71 68 63 64 63 67 63 66 53 62 68 61 77 102 107 95 93 77 83 87 74 61 41 30 21 14 31 52 62 68 32 23 305 311 301
59 45 31 100 248 238 267 34 78 81 88 101 92 56 24 121 137 135 140 157 148 139 136 137 137 135 129 95 75 135 162 155 148 136 150 174 155 32 341 37 21 8 13 48 42 31 36 47 61 68 72 74 74 72 71 67 61 59 58 52 47 43 54 55 58 61 76 81 77 53 53 78 77 71 66 45 31 34 50 41 35 34 34 28 19 356 330
157 180 145 200 285 333 340 118 160 153 146 149 128 136 233 223 154 136 134 131 132 130 137 132 123 117 94 83 10 322 140 150 151 148 159 145 90 81 37 48 26 9 355 65 70 62 47 60 65 69 70 67 68 67 63 56 60 62 58 52 37 37 36 35 46 66 79 81 75 59 48 68 74 75 77 65 54 49 64 55 52 50 50 35 18 39 55
115 124 39 359 28 64 271 251 275 294 140 129 124 107 180 300 258 145 136 145 144 137 136 134 133 115 103 149 232 245 202 141 127 107 117 104 91 75 59 38 38 24 25 48 57 76 72 58 44 50 64 64 62 62 59 55 64 61 58 51 34 28 27 26 37 47 59 68 69 59 54 63 74 82 78 72 65 54 63 63 60 54 50 51 42 42 55
74 65 118 179 140 245 214 243 328 54 119 116 97 74 189 264 185 170 138 147 152 151 150 148 140 133 161 206 214 221 182 161 142 134 136 119 115 82 67 67 54 54 46 36 30 46 53 54 32 52 62 74 81 79 69 69 73 78 75 73 56 43 33 29 31 48 57 67 72 68 59 54 69 87 82 80 77 65 65 66 66 59 60 64 60 51 49
153 140 111 207 196 190 216 213 218 209 146 93 63 66 253 233 179 171 151 153 158 162 155 154 159 162 178 207 213 192 174 167 166 155 161 138 121 117 86 355 36 43 33 30 33 63 58 26 359 22 26 53 79 85 72 79 81 82 89 95 94 71 53 50 44 47 63 75 75 77 74 69 75 81 89 81 68 70 67 71 76 67 66 65 68 57 46
146 115 239 3 303 287 259 241 222 206 215 77 92 187 236 185 165 175 161 161 164 159 161 164 171 214 186 188 162 156 158 142 161 165 162 177 164 160 157 85 96 79 54 57 65 69 81 63 38 29 27 23 61 76 80 71 77 81 83 75 70 71 65 60 56 52 48 59 66 62 65 71 70 66 60 69 69 67 71 71 71 64 61 62 64 58 48
168 180 131 210 228 237 206 282 146 151 98 139 217 237 185 146 164 169 166 161 167 166 168 179 187 201 202 143 131 145 155 161 176 172 173 172 175 147 140 110 94 83 81 83 76 73 77 77 38 8 24 49 74 96 96 90 106 98 80 74 75 74 76 71 60 54 54 54 56 59 56 62 70 68 60 67 72 76 80 76 76 73 68 60 59 54 41
53 41 94 138 186 269 187 223 358 30 109 228 201 124 98 142 151 158 169 160 169 162 162 157 148 136 138 140 142 146 155 154 167 171 156 159 150 133 124 105 107 114 103 102 114 122 118 120 117 67 334 3 65 75 81 96 113 104 96 90 81 83 91 89 83 77 66 59 57 56 59 61 73 72 60 70 76 76 76 74 71 71 63 57 58 52 45
157 127 128 188 212 226 272 111 176 233 200 169 149 132 126 144 146 153 148 159 162 157 145 148 145 141 134 131 132 133 149 159 163 166 157 145 126 124 130 133 132 127 128 134 121 112 117 129 121 152 219 191 80 76 74 91 94 96 97 96 94 80 59 58 66 62 61 59 60 56 60 67 70 77 70 71 73 71 70 68 66 63 46 43 46 49 47
130 195 209 237 221 205 253 144 179 154 145 146 153 139 145 146 166 150 148 161 155 148 142 145 144 142 151 149 145 142 156 151 151 150 160 153 150 146 145 149 140 132 136 126 107 78 67 105 119 136 250 214 87 66 33 64 82 97 96 95 98 102 100 84 68 65 60 58 57 56 50 54 63 65 67 67 69 45 67 64 66 67 50 45 42 32 32
232 69 178 196 89 134 152 112 136 136 133 117 128 131 131 170 151 161 158 157 149 147 143 137 150 151 153 141 144 145 146 146 145 132 118 117 125 129 128 125 126 129 116 106 113 111 76 68 69 89 87 73 69 35 33 51 66 87 89 88 85 84 84 81 80 75 66 56 52 48 50 50 59 50 62 64 72 58 61 69 70 72 68 62 55 52 43
71 176 305 135 171 180 158 145 154 149 141 155 149 149 150 158 155 150 153 151 155 153 150 147 151 155 149 140 149 146 145 141 143 141 136 137 134 132 128 138 125 115 112 102 101 97 83 42 61 68 81 79 92 68 52 51 70 84 88 86 83 78 80 80 76 75 76 66 50 41 39 45 46 48 49 55 64 60 58 66 70 75 75 77 72 64 53
137 212 223 228 206 212 178 151 155 152 145 158 163 160 156 152 158 152 153 142 142 146 146 150 149 157 151 143 151 148 146 147 149 147 143 138 116 120 126 123 115 113 113 121 117 107 103 105 98 87 74 77 73 64 59 62 75 80 81 88 94 97 95 94 91 94 91 90 84 63 44 40 39 39 37 45 62 54 52 37 56 59 65 67 70 73 64
274 290 357 94 127 132 251 203 146 159 156 150 149 140 136 131 131 136 147 154 155 154 154 150 151 152 151 148 151 146 147 147 151 153 149 144 140 138 125 126 121 124 124 113 115 111 120 126 111 98 83 68 59 59 61 73 84 82 79 82 86 85 92 95 93 87 91 99 100 98 85 59 52 44 23 4 39 72 59 63 12 43 61 59 63 46 64
140 185 209 132 117 231 252 232 155 156 156 137 138 132 130 137 137 145 144 147 149 149 152 154 155 154 151 153 152 151 153 156 153 141 137 139 134 134 132 125 122 120 122 127 123 120 127 122 116 109 92 74 64 62 68 73 83 87 85 76 73 76 83 88 98 103 92 88 99 108 110 115 103 59 34 28 338 36 69 49 62 58 43 63 350 331 7
224 237 223 199 161 171 201 199 180 152 148 135 141 152 153 157 152 149 144 140 134 148 160 159 153 149 153 156 152 146 148 154 149 143 140 136 133 137 136 124 126 129 139 131 127 130 143 124 103 97 92 82 74 68 76 83 89 92 88 84 77 71 73 81 92 95 106 119 116 104 113 128 131 128 150 229 33 54 58 23 352 352 49 78 32 28 22
225 197 186 162 154 166 195 197 180 161 155 145 152 160 159 158 157 155 152 153 149 155 160 166 155 150 151 154 151 151 152 147 140 144 144 142 142 145 142 139 143 140 143 142 149 162 168 144 135 118 96 89 95 89 88 91 89 85 82 86 85 75 79 83 89 92 100 106 115 138 154 146 147 138 126 121 188 202 181 245 290 290 300 346 20 47 43
203 203 167 189 158 151 150 167 174 158 159 142 150 161 161 157 161 158 155 157 153 152 157 161 152 155 152 157 152 149 150 153 148 147 148 142 143 139 141 137 146 151 160 163 164 152 134 125 122 117 106 99 89 80 73 72 76 77 81 94 94 86 78 78 79 87 89 95 111 122 143 171 192 176 166 171 175 206 254 220 229 259 290 291 331 350 343
155 139 138 141 115 128 141 92 103 147 148 136 137 152 157 159 162 158 157 153 156 155 152 152 153 161 152 151 150 148 144 154 153 143 139 141 138 131 139 151 158 152 148 138 130 128 122 114 103 106 109 128 113 89 59 64 74 79 75 96 120 123 101 100 98 82 85 83 82 93 150 168 191 200 207 195 205 185 191 286 327 311 250 236 233 314 257
91 128 106 80 102 158 175 148 188 193 162 149 144 148 156 159 159 156 153 153 156 156 153 152 151 151 146 150 147 151 150 154 143 142 147 149 156 163 163 154 151 145 128 122 125 132 125 106 99 108 125 117 24 30 39 52 67 65 63 62 74 67 108 112 122 134 122 73 29 355 6 4 133 180 246 292 215 179 181 198 203 187 228 250 357 142 246
158 161 141 151 175 181 211 208 163 161 152 145 138 135 140 129 126 128 133 135 145 141 137 141 141 142 143 152 145 149 143 147 150 153 151 163 168 160 154 153 147 135 129 131 135 129 119 120 111 92 79 77 75 65 65 62 56 46 34 32 40 85 103 121 108 181 114 68 13 10 341 320 303 309 310 274 243 269 231 191 187 154 223 237 242 295 260
170 170 167 158 176 181 160 125 114 121 142 141 133 131 134 133 141 143 149 155 155 144 137 149 150 151 149 157 149 151 153 153 152 159 165 160 156 155 153 144 142 136 136 140 146 138 128 115 103 101 104 98 91 82 79 73 60 52 33 20 23 79 103 130 194 185 177 28 349 339 333 332 345 339 327 327 323 2 26 176 164 144 180 203 328 336 344
178 154 137 151 146 134 134 154 160 151 149 150 141 148 144 137 142 152 153 155 154 157 156 145 143 150 150 153 157 156 160 164 162 165 162 153 155 154 147 140 126 122 117 130 158 159 129 120 115 122 146 142 102 95 89 79 71 58 42 26 24 103 147 184 207 220 24 1 322 358 345 327 340 354 341 345 8 17 40 69 125 144 154 176 184 180 227
168 156 141 143 148 155 155 167 154 159 159 161 150 148 151 145 148 153 160 160 160 157 155 149 152 154 159 161 164 159 155 154 159 164 157 155 159 154 149 145 147 167 172 168 168 146 125 131 129 140 174 134 99 89 80 76 72 61 49 39 49 38 19 350 303 273 27 335 326 324 335 351 346 353 3 49 55 50 48 49 87 125 143 150 155 197 231
127 128 138 154 163 166 169 162 150 159 166 169 153 156 161 152 152 157 161 163 169 161 155 147 151 163 167 158 155 153 151 148 147 151 156 158 161 162 160 163 166 168 165 156 148 142 137 134 132 160 157 119 106 97 102 88 76 75 61 55 52 16 12 22 23 358 329 309 296 298 287 307 334 44 58 67 76 82 64 77 103 131 141 164 179 198 231
123 115 136 168 175 173 177 192 166 177 167 173 178 167 167 163 157 152 164 162 155 157 156 159 162 161 156 153 154 154 150 146 144 147 152 158 164 169 171 167 161 158 162 163 159 150 144 141 151 161 140 123 122 120 100 100 105 110 123 108 43 360 360 358 357 343 348 2 336 329 277 205 189 139 141 152 155 120 100 96 123 137 148 161 172 192 50
161 170 180 183 174 179 184 202 197 180 187 181 179 172 166 163 160 153 154 156 158 161 163 160 160 155 152 153 156 151 143 136 146 160 163 161 166 171 174 163 155 150 141 137 139 136 133 138 144 154 151 138 129 102 102 113 121 138 140 132 98 37 348 332 342 353 339 342 310 307 301 252 205 158 172 163 170 129 107 123 144 148 147 146 106 57 298
176 178 175 183 185 183 181 179 185 185 176 175 181 183 173 159 159 157 158 157 164 172 165 150 150 151 152 153 154 158 159 164 166 164 166 164 165 165 155 134 120 114 118 140 149 150 149 147 150 149 144 127 113 120 130 130 140 144 164 112 54 342 305 321 319 306 315 307 302 299 65 123 342 285 131 102 66 32 63 103 101 129 133 141 145 106 41
142 139 147 174 194 186 178 181 182 179 174 172 167 156 140 134 141 154 163 168 165 155 153 150 149 147 151 156 161 166 170 166 164 163 162 162 158 148 141 141 141 137 134 148 176 152 149 156 159 150 135 133 133 143 142 141 151 159 214 158 39 255 288 290 294 312 294 271 232 238 69 67 57 50 44 44 47 41 54 66 70 90 139 154 156 135 64
161 159 165 172 189 190 187 187 181 164 156 149 145 146 146 145 141 144 135 132 157 159 155 148 146 150 161 165 166 164 162 161 161 163 157 150 148 144 144 142 145 145 147 155 199 180 165 169 167 155 142 146 152 164 177 158 170 194 87 68 10 312 308 288 285 278 287 328 29 59 75 74 68 55 57 62 57 50 44 50 58 56 35 142 148 129 119
177 159 160 165 180 189 193 190 169 158 145 138 145 153 156 155 153 151 152 145 152 165 157 156 160 160 153 147 148 154 159 158 157 153 146 150 153 146 150 148 155 152 160 182 176 175 184 185 171 149 149 159 170 180 197 172 166 147 116 122 357 339 319 312 318 327 316 29 86 91 88 88 84 70 61 60 64 64 60 57 54 51 35 39 74 74 60
151 149 150 161 158 171 167 145 158 168 161 154 157 159 166 158 160 152 152 153 153 161 163 157 145 140 146 149 154 157 159 161 158 154 153 156 157 153 171 172 171 172 179 172 158 171 187 180 139 149 160 167 177 199 216 180 143 129 84 37 356 336 323 334 61 88 88 90 91 88 85 82 87 88 76 68 64 59 57 58 55 47 49 47 49 40 31
167 169 175 161 176 175 153 163 175 183 189 162 153 160 168 157 163 161 159 152 156 166 165 153 152 153 157 157 158 164 167 162 160 159 159 155 154 154 160 196 199 169 156 153 159 166 172 156 146 155 163 165 159 157 145 141 139 95 78 34 353 345 3 81 94 85 78 79 76 76 76 83 86 84 82 79 69 68 63 56 48 43 46 48 47 40 31
182 179 177 172 175 171 174 169 182 190 180 172 168 162 164 162 162 158 165 166 165 170 170 163 162 164 165 165 166 167 165 164 161 166 156 144 146 155 163 193 208 172 158 153 158 164 164 150 140 143 148 149 157 153 150 131 95 80 63 22 14 11 134 108 90 91 94 85 83 81 90 94 88 85 88 85 82 79 73 66 61 55 50 46 38 36 37
192 180 173 172 170 174 190 191 180 179 195 189 177 168 175 167 163 171 174 164 161 171 175 173 168 168 171 166 162 159 163 166 166 163 162 165 168 165 171 199 177 171 164 155 157 156 149 138 143 150 155 158 159 155 153 130 106 103 80 15 9 13 154 112 108 104 98 97 99 97 94 92 97 94 86 83 83 84 81 76 69 60 51 51 50 38 35
180 177 180 184 189 182 187 188 183 187 189 197 188 184 182 179 173 166 163 160 162 172 178 178 172 162 159 158 155 161 167 166 165 166 172 180 175 177 177 178 164 171 163 151 152 147 147 145 156 162 163 160 162 164 145 106 100 97 76 10 7 54 187 130 126 123 115 109 104 103 105 107 109 106 98 91 93 91 90 90 91 86 81 77 69 56 45
189 181 178 182 191 187 183 186 185 178 185 203 196 187 182 181 174 169 168 168 169 174 175 173 167 163 163 160 156 159 163 165 165 161 151 126 80 7 64 144 156 167 162 152 153 152 155 160 162 173 171 166 166 155 142 132 115 114 91 10 340 170 151 131 126 122 116 112 115 118 121 120 119 120 118 115 112 108 110 108 106 102 94 81 74 80 82
192 187 184 191 178 156 174 182 181 187 194 188 176 172 176 177 181 179 172 171 173 176 174 171 169 167 163 163 164 166 166 165 160 153 150 152 158 190 202 153 153 158 157 156 157 157 160 163 176 174 172 170 164 150 135 146 137 124 97 35 29 114 125 121 119 123 122 124 125 132 134 135 135 131 126 125 123 124 123 122 126 127 118 112 107 101 96
194 196 194 185 175 176 182 187 191 151 137 153 169 186 183 179 179 181 178 176 176 178 176 174 171 169 165 160 153 147 146 151 165 173 171 170 174 175 169 163 158 159 153 147 152 161 169 175 174 172 173 170 160 140 158 157 122 102 76 124 119 120 118 125 124 130 137 141 146 146 143 140 134 138 138 138 143 141 146 143 141 143 140 140 140 132 119
185 193 191 190 196 192 178 170 147 144 142 147 167 191 204 190 178 177 185 186 182 179 178 175 171 168 159 151 145 140 135 122 83 28 80 76 100 131 156 156 152 149 143 147 155 159 164 168 171 172 169 165 144 145 166 148 129 89 96 126 149 147 139 136 141 147 150 151 157 158 154 148 147 147 146 139 138 143 150 148 149 155 154 141 128 119 115
220 213 201 185 187 174 140 141 149 163 174 184 187 187 186 188 183 166 135 67 25 19 49 42 80 115 144 153 155 155 154 150 146 169 174 134 140 141 148 153 156 146 145 145 147 156 157 154 159 163 160 155 136 138 146 144 135 133 125 151 195 160 150 142 142 141 136 126 126 113 112 129 142 154 154 152 155 158 163 161 160 165 159 151 151 152 150
16 224 209 188 162 150 155 162 167 176 194 198 186 180 171 161 128 89 78 94 119 130 123 104 110 146 202 189 160 157 161 161 156 164 179 154 147 150 151 147 149 143 137 142 150 159 161 160 160 161 166 158 160 166 156 156 159 146 167 175 181 170 164 160 162 155 137 132 113 113 122 144 169 160 154 159 163 168 165 172 177 160 166 167 151 157 158
166 114 146 168 168 161 161 167 184 197 197 193 194 175 156 140 140 146 154 163 168 164 158 167 169 163 159 175 161 143 133 101 95 121 138 147 142 140 144 144 143 142 145 149 154 160 168 164 165 170 168 153 171 160 158 172 166 165 167 165 171 171 184 170 165 144 139 146 141 141 141 158 173 182 168 161 162 169 179 173 155 177 178 151 142 152 154
165 104 106 103 106 116 119 123 134 116 101 94 83 38 354 67 114 125 142 157 156 160 169 161 156 155 149 156 152 136 120 120 128 132 132 136 137 140 142 142 145 147 148 148 155 162 166 161 168 173 165 162 176 174 158 166 175 184 217 166 182 181 178 171 146 141 150 164 176 170 151 173 177 183 174 171 168 168 161 153 164 161 139 148 161 160 166
82 126 140 146 150 152 148 147 140 132 129 132 138 148 152 140 119 116 92 39 304 178 160 149 154 169 154 147 142 135 132 131 131 130 131 134 138 142 147 143 141 146 146 152 161 163 166 173 179 177 176 170 182 171 177 167 153 147 175 198 188 186 172 164 160 155 172 171 148 150 150 158 162 169 177 183 161 144 157 165 154 150 153 162 167 169 164